Easton, MD

11:43 AM EST on February 27, 2017 (GMT -0500)
Easton / Newnam

Weather History for KESN - July, 2013

Change the Weather History Date:

Monday, July 1, 2013

  Actual Average Record
Temperature  
Mean Temperature 76 °F -  
Max Temperature 80 °F 89 °F 99 °F (1959)
Min Temperature 73 °F 67 °F 55 °F (1952)
Cooling Degree Days 12    
Growing Degree Days 26 (Base 50)    
Moisture  
Dew Point 75 °F    
Average Humidity 97    
Maximum Humidity 100    
Minimum Humidity 84    
Precipitation  
Precipitation 0.00 in - - ()
Sea Level Pressure  
Sea Level Pressure 29.99 in    
Wind  
Wind Speed 7 mph (South)    
Max Wind Speed 12 mph    
Max Gust Speed 16 mph    
Visibility 8 miles    
Events Rain    
Averages and records for this station are not official NWS values.
T = Trace of Precipitation, MM = Missing Value Source: NWS Daily Summary

Daily Weather History Graph

Daily Weather History Graph

Search for Another Location

Airport or City:

Trip Planner

Search our weather history database for the weather conditions in past years. The results will help you decide how hot, cold, wet, or windy it might be!

Date:

Astronomy

Jul. 01, 2013 Rise Set
Actual Time 5:43 AM EDT 8:33 PM EDT
Civil Twilight 5:11 AM EDT 9:05 PM EDT
Nautical Twilight 4:31 AM EDT 9:44 PM EDT
Astronomical Twilight 3:45 AM EDT 10:30 PM EDT
Moon 1:09 AM EDT (7/1) 2:48 PM EDT (7/1)
Length of Visible Light 15h 53m
Length of Day
14h 50m
Waning Crescent, 35% of the Moon is Illuminated
Jul 1
Waning Crescent
Jul 8
New
Jul 15
First Quarter
Jul 22
Full
Jul 29
Last Quarter

Hourly Weather History & Observations

Time (EDT) Temp. Heat Index Dew Point Humidity Pressure Visibility Wind Dir Wind Speed Gust Speed Precip Events Conditions
5:45 AM 77.0 °F - 73.4 °F 89% 29.93 in 10.0 mi South 9.2 mph - N/A   Mostly Cloudy
6:45 AM 77.0 °F - 75.2 °F 94% 29.95 in 10.0 mi SSW 10.4 mph - N/A   Mostly Cloudy
7:50 AM 75.2 °F - 75.2 °F 100% 29.97 in 10.0 mi SSW 6.9 mph - N/A   Mostly Cloudy
8:05 AM 75.2 °F - 75.2 °F 100% 29.98 in 2.5 mi South 6.9 mph - N/A Rain Light Rain
8:48 AM 73.4 °F - 73.4 °F 100% 29.98 in 6.0 mi South 8.1 mph - N/A Rain Light Rain
9:50 AM 75.2 °F - 75.2 °F 100% 29.98 in 10.0 mi South 6.9 mph - N/A   Light Drizzle
10:45 AM 73.4 °F - 73.4 °F 100% 29.99 in 2.5 mi South 8.1 mph - N/A Rain Rain
11:51 AM 73.4 °F - 73.4 °F 100% 29.99 in 10.0 mi South 5.8 mph - N/A Rain Rain
12:53 PM 75.2 °F - 75.2 °F 100% 29.99 in 10.0 mi South 4.6 mph - N/A Rain Light Rain
1:54 PM 77.0 °F - 77.0 °F 100% 29.99 in 10.0 mi South 3.5 mph - N/A   Mostly Cloudy
2:52 PM 77.0 °F - 77.0 °F 100% 29.98 in 10.0 mi South 5.8 mph - N/A   Mostly Cloudy
3:52 PM 78.8 °F - 75.2 °F 89% 29.99 in 10.0 mi SSW 10.4 mph - N/A   Mostly Cloudy
4:53 PM 80.6 °F 86.2 °F 75.2 °F 84% 29.99 in 10.0 mi SSW 9.2 mph 16.1 mph N/A   Mostly Cloudy
5:53 PM 78.8 °F - 75.2 °F 89% 30.00 in 10.0 mi South 11.5 mph - N/A   Mostly Cloudy
6:53 PM 77.0 °F - 75.2 °F 94% 30.01 in 10.0 mi South 5.8 mph - N/A   Mostly Cloudy
7:53 PM 77.0 °F - 77.0 °F 100% 30.02 in 10.0 mi Calm Calm - N/A   Mostly Cloudy
8:53 PM 75.2 °F - 75.2 °F 100% 30.02 in 10.0 mi South 3.5 mph - N/A   Mostly Cloudy
9:50 PM 75.2 °F - 75.2 °F 100% 30.03 in 1.0 mi Calm Calm - N/A   Mostly Cloudy
10:46 PM 76.1 °F - 76.1 °F 100% 30.04 in 10.0 mi Calm Calm - N/A   Mostly Cloudy